GW4886 Weather Reports


time (UTC)temp
F
wind
direction
speed
knots
gust
knots
rain 1hr
in
rain 24hr
in
rain mn
in
humidity
%
barometer
mb
20260502152217 47 344 7.0 8.7 0.00 0.00 0.00 52 1015.4
20260502151715 48 42 7.0 8.7 0.00 0.00 0.00 48 1015.5
20260502151212 48 344 1.7 5.2 0.00 0.00 0.00 50 1015.5
20260502150709 47 64 6.1 7.8 0.00 0.00 0.00 51 1015.5
20260502150205 47 70 5.2 7.0 0.00 0.00 0.00 52 1015.3
20260502140129 46 70 0.9 13.0 0.00 0.00 0.00 50 1015.5
20260502130554 43 50 1.7 3.5 0.00 0.00 0.00 63 1015.5
20260502123538 42 258 1.7 2.6 0.00 0.00 0.00 66 1015.7
20260502123034 41 61 3.5 5.2 0.00 0.00 0.00 70 1015.5
20260502122531 41 60 0.0 0.9 0.00 0.00 0.00 73 1015.4
20260502122028 41 34 1.7 1.7 0.00 0.00 0.00 71 1015.5
20260502121525 41 39 1.7 2.6 0.00 0.00 0.00 69 1015.5
20260502121023 41 343 3.5 5.2 0.00 0.00 0.00 69 1015.6
20260502120519 41 40 0.0 2.6 0.00 0.00 0.00 68 1015.6
20260502115513 40 297 0.9 0.9 0.00 0.00 0.00 71 1015.5
20260502115009 40 251 0.9 2.6 0.00 0.00 0.00 73 1015.5
20260502114506 40 240 1.7 2.6 0.00 0.00 0.00 71 1015.5
20260502114003 39 284 1.7 3.5 0.00 0.00 0.00 74 1015.5
20260502113500 39 267 1.7 2.6 0.00 0.00 0.00 77 1015.5
20260502112959 38 248 1.7 2.6 0.00 0.00 0.00 81 1015.4
20260502112456 38 243 0.9 2.6 0.00 0.00 0.00 79 1015.6
20260502111954 38 253 0.9 2.6 0.00 0.00 0.00 81 1015.5
20260502111451 37 263 1.7 2.6 0.00 0.00 0.00 83 1015.3
20260502110948 37 252 0.9 0.9 0.00 0.00 0.00 83 1015.3
20260502110446 37 249 1.7 1.7 0.00 0.00 0.00 81 1015.3
20260502105943 37 249 0.9 0.9 0.00 0.00 0.00 83 1015.6
20260502105440 37 256 0.9 0.9 0.00 0.00 0.00 85 1015.5
20260502104938 37 258 0.9 0.9 0.00 0.00 0.00 84 1015.5
20260502104435 37 269 1.7 1.7 0.00 0.00 0.00 83 1015.6
20260502103932 37 269 0.9 1.7 0.00 0.00 0.00 83 1015.5
20260502103430 37 263 0.9 0.9 0.00 0.00 0.00 84 1015.5
20260502102927 37 262 0.0 1.7 0.00 0.00 0.00 80 1015.4
20260502102423 37 249 1.7 2.6 0.00 0.00 0.00 81 1015.6
20260502101920 37 250 0.9 0.9 0.00 0.00 0.00 83 1015.5
20260502101419 37 250 0.0 1.7 0.00 0.00 0.00 81 1015.6
20260502100917 37 251 1.7 2.6 0.00 0.00 0.00 82 1015.7
20260502100416 37 270 0.9 0.9 0.00 0.00 0.00 86 1015.8
20260502091349 38 272 0.9 1.7 0.00 0.00 0.00 84 1015.6
20260502090847 38 279 0.9 1.7 0.00 0.00 0.00 80 1015.7
20260502090344 38 289 0.9 1.7 0.00 0.00 0.00 84 1015.8
20260502071238 39 276 0.9 0.9 0.00 0.00 0.00 79 1015.5
20260502070737 40 265 0.9 0.9 0.00 0.00 0.00 81 1015.3
20260502070234 40 265 0.9 0.9 0.00 0.00 0.00 82 1015.3
20260502065733 40 293 1.7 1.7 0.00 0.00 0.00 80 1015.3
20260502065230 40 341 0.9 1.7 0.00 0.00 0.00 77 1015.4
20260502064729 41 281 0.9 1.7 0.00 0.00 0.00 72 1015.4
20260502064226 41 273 0.9 1.7 0.00 0.00 0.00 78 1015.3
20260502063723 41 248 0.9 1.7 0.00 0.00 0.00 76 1015.4
20260502063221 40 305 0.0 0.9 0.00 0.00 0.00 80 1015.3
20260502062718 40 307 0.0 1.7 0.00 0.00 0.00 77 1015.4
20260502062216 42 259 0.9 1.7 0.00 0.00 0.00 72 1015.4
20260502061714 43 269 0.9 1.7 0.00 0.00 0.00 71 1015.4
20260502061211 43 256 1.7 2.6 0.00 0.00 0.00 73 1015.4
20260502060706 43 287 0.0 1.7 0.00 0.00 0.00 71 1015.6
20260502060203 44 283 1.7 2.6 0.00 0.00 0.00 70 1015.5
20260502055700 44 265 0.9 1.7 0.00 0.00 0.00 68 1015.6
20260502055158 44 308 0.0 0.9 0.00 0.00 0.00 71 1015.7
20260502054657 44 305 0.9 1.7 0.00 0.00 0.00 68 1015.7
20260502054154 45 290 1.7 2.6 0.00 0.00 0.00 68 1015.5
20260502053651 45 355 0.9 1.7 0.00 0.00 0.00 70 1015.5
20260502053148 45 269 0.0 1.7 0.00 0.00 0.00 68 1015.8
20260502052646 45 315 0.9 2.6 0.00 0.00 0.00 69 1015.7
20260502052144 45 319 2.6 3.5 0.00 0.00 0.00 69 1015.7
20260502051642 46 275 1.7 2.6 0.00 0.00 0.00 68 1015.9
20260502051140 45 47 5.2 7.8 0.00 0.00 0.00 69 1015.8
20260502050636 45 332 0.9 5.2 0.00 0.00 0.00 67 1015.9
20260502050133 45 283 1.7 2.6 0.00 0.00 0.00 70 1015.8
20260502045629 45 231 0.9 1.7 0.00 0.00 0.00 71 1015.6
20260502045127 45 255 1.7 1.7 0.00 0.00 0.00 71 1015.8
20260502044623 45 276 1.7 2.6 0.00 0.00 0.00 71 1015.9
20260502044120 46 313 2.6 3.5 0.00 0.00 0.00 70 1015.8
20260502043618 46 298 4.3 6.1 0.00 0.00 0.00 71 1015.8
20260502043115 46 269 1.7 2.6 0.00 0.00 0.00 72 1015.7
20260502042614 46 285 2.6 3.5 0.00 0.00 0.00 71 1015.7
20260502042112 46 320 1.7 2.6 0.00 0.00 0.00 70 1015.8
20260502041610 46 27 2.6 5.2 0.00 0.00 0.00 73 1015.8
20260502041107 46 52 2.6 6.1 0.00 0.00 0.00 72 1015.5
20260502040603 47 9 1.7 2.6 0.00 0.00 0.00 72 1015.6
20260502040101 46 356 0.9 1.7 0.00 0.00 0.00 74 1015.7
20260502035556 46 317 1.7 1.7 0.00 0.00 0.00 73 1015.6
20260502035054 46 14 3.5 3.5 0.00 0.00 0.00 72 1015.9
20260502034551 46 298 1.7 2.6 0.00 0.00 0.00 72 1015.8
20260502034050 46 279 0.0 0.9 0.00 0.00 0.00 71 1015.6
20260502033548 45 276 1.7 1.7 0.00 0.00 0.00 76 1015.6
20260502033045 46 313 0.9 1.7 0.00 0.00 0.00 73 1015.7
20260502032540 46 271 0.9 1.7 0.00 0.00 0.00 73 1015.7
20260502032037 45 277 0.0 1.7 0.00 0.00 0.00 75 1015.7
20260502031535 46 210 1.7 1.7 0.00 0.00 0.00 72 1015.6
20260502031033 46 274 1.7 1.7 0.00 0.00 0.00 72 1015.7
20260502030532 46 272 0.0 1.7 0.00 0.00 0.00 71 1015.4
20260502030029 46 6 0.9 2.6 0.00 0.00 0.00 69 1015.4
20260502025526 47 326 1.7 3.5 0.00 0.00 0.00 67 1015.2
20260502025024 47 4 2.6 2.6 0.00 0.00 0.00 68 1015.5
20260502024521 47 94 2.6 6.1 0.00 0.00 0.00 64 1015.5
20260502024020 46 28 1.7 1.7 0.00 0.00 0.00 66 1015.3
20260502023517 47 344 3.5 6.1 0.00 0.00 0.00 64 1015.3
20260502023014 47 56 3.5 6.1 0.00 0.00 0.00 66 1015.3
20260502022510 47 5 6.1 7.8 0.00 0.00 0.00 67 1015.0
20260502022008 47 342 2.6 3.5 0.00 0.00 0.00 67 1015.2
20260502021505 47 351 2.6 5.2 0.00 0.00 0.00 69 1015.0
20260502021002 48 23 6.1 7.8 0.00 0.00 0.00 68 1014.9
20260502020500 48 334 3.5 6.1 0.00 0.00 0.00 71 1014.5
20260502015956 49 37 4.3 7.8 0.00 0.00 0.00 69 1014.4
20260502015454 49 356 2.6 6.1 0.00 0.00 0.00 69 1014.5
20260502014950 49 23 2.6 3.5 0.00 0.00 0.00 70 1014.4
20260502014447 49 339 4.3 5.2 0.00 0.00 0.00 69 1014.9
20260502013944 49 35 1.7 3.5 0.00 0.00 0.00 73 1014.7
20260502013440 49 78 1.7 2.6 0.00 0.00 0.00 73 1014.6
20260502012936 50 214 0.0 3.5 0.00 0.00 0.00 71 1014.4
20260502012434 50 49 3.5 3.5 0.00 0.00 0.00 73 1014.6
20260502011931 50 68 2.6 7.0 0.00 0.00 0.00 72 1014.3
20260502011427 50 290 7.0 7.8 0.00 0.00 0.00 70 1014.3
20260502010924 51 354 3.5 5.2 0.00 0.00 0.00 69 1014.5
20260502010421 51 295 0.9 2.6 0.00 0.00 0.00 68 1014.2
20260502005917 51 264 1.7 2.6 0.00 0.00 0.00 68 1014.0
20260502005415 51 322 0.9 1.7 0.00 0.00 0.00 69 1013.9
20260502004914 51 52 1.7 1.7 0.00 0.00 0.00 68 1013.6
20260502004409 52 208 0.0 1.7 0.00 0.00 0.00 66 1013.5
20260502003906 52 80 1.7 2.6 0.00 0.00 0.00 66 1013.5
20260502003404 53 304 4.3 6.1 0.00 0.00 0.00 63 1013.6
20260502002859 53 308 3.5 3.5 0.00 0.00 0.00 65 1013.4
20260502002357 53 265 0.9 1.7 0.00 0.00 0.00 62 1013.0
20260502001854 53 346 2.6 2.6 0.00 0.00 0.00 64 1013.1
20260502001352 53 335 1.7 7.8 0.00 0.00 0.00 62 1012.8
20260502000849 54 5 2.6 2.6 0.00 0.00 0.00 59 1012.6
20260502000348 54 327 1.7 2.6 0.00 0.00 0.00 58 1012.8
20260501235843 55 313 1.7 3.5 0.00 0.00 0.00 54 1012.5
20260501235339 55 306 3.5 5.2 0.00 0.00 0.00 55 1012.3
20260501234834 55 280 1.7 5.2 0.00 0.00 0.00 53 1012.4
20260501234332 55 35 3.5 5.2 0.00 0.00 0.00 52 1012.2
20260501233830 56 314 0.0 2.6 0.00 0.00 0.00 50 1012.3
20260501233327 56 279 2.6 5.2 0.00 0.00 0.00 50 1012.0
20260501232823 56 317 0.9 2.6 0.00 0.00 0.00 51 1011.8
20260501232320 56 15 1.7 3.5 0.00 0.00 0.00 49 1011.9
20260501231818 56 318 0.0 3.5 0.00 0.00 0.00 49 1012.0
20260501231316 56 322 5.2 11.3 0.00 0.00 0.00 48 1012.0
20260501230814 57 32 5.2 7.0 0.00 0.00 0.00 48 1012.1
20260501230312 58 339 4.3 6.1 0.00 0.00 0.00 46 1012.3
20260501225809 59 258 3.5 3.5 0.00 0.00 0.00 43 1011.9
20260501225307 60 332 6.1 11.3 0.00 0.00 0.00 43 1011.9
20260501224803 60 38 8.7 13.0 0.00 0.00 0.00 40 1012.1
20260501224300 59 289 3.5 8.7 0.00 0.00 0.00 38 1012.0
20260501223756 59 304 3.5 7.8 0.00 0.00 0.00 36 1011.5
20260501223253 60 292 3.5 3.5 0.00 0.00 0.00 36 1011.5
20260501222749 60 292 0.0 0.9 0.00 0.00 0.00 37 1011.3
20260501222246 60 349 5.2 7.0 0.00 0.00 0.00 36 1011.2
20260501221743 61 275 2.6 5.2 0.00 0.00 0.00 35 1011.3
20260501221240 61 300 0.9 7.8 0.00 0.00 0.00 33 1011.4
20260501220738 61 309 5.2 6.1 0.00 0.00 0.00 34 1011.6
20260501220235 61 281 4.3 6.1 0.00 0.00 0.00 33 1011.5
20260501215732 62 270 7.8 11.3 0.00 0.00 0.00 31 1011.4
20260501215227 63 255 5.2 6.1 0.00 0.00 0.00 30 1011.4
20260501214722 64 27 4.3 6.1 0.00 0.00 0.00 30 1011.2
20260501214219 64 280 7.8 11.3 0.00 0.00 0.00 29 1011.2
20260501213715 63 15 5.2 7.0 0.00 0.00 0.00 29 1011.0
20260501213211 63 345 0.0 2.6 0.00 0.00 0.00 29 1011.1
20260501212708 63 227 1.7 5.2 0.00 0.00 0.00 26 1011.2
20260501212204 63 327 1.7 5.2 0.00 0.00 0.00 28 1011.2
20260501211701 64 266 6.1 13.9 0.00 0.00 0.00 31 1011.4
20260501211158 65 257 6.1 8.7 0.00 0.00 0.00 26 1011.1
20260501210655 63 269 3.5 11.3 0.00 0.00 0.00 27 1011.1
20260501210152 63 301 7.8 11.3 0.00 0.00 0.00 29 1011.1
20260501205648 64 165 1.7 9.6 0.00 0.00 0.00 31 1011.1
20260501205146 64 130 3.5 5.2 0.00 0.00 0.00 33 1011.1
20260501204642 63 5 0.0 0.9 0.00 0.00 0.00 30 1011.1
20260501204138 63 222 3.5 3.5 0.00 0.00 0.00 29 1010.9
20260501203635 62 245 2.6 2.6 0.00 0.00 0.00 33 1010.8
20260501203133 62 186 0.9 5.2 0.00 0.00 0.00 30 1010.9
20260501202629 63 270 7.8 11.3 0.00 0.00 0.00 31 1010.8
20260501202126 65 146 4.3 6.1 0.00 0.00 0.00 35 1011.2
20260501201623 64 132 4.3 7.0 0.00 0.00 0.00 33 1011.2
20260501201119 65 158 2.6 3.5 0.00 0.00 0.00 35 1011.3
20260501200617 64 225 0.9 7.8 0.00 0.00 0.00 37 1011.3
20260501200114 64 149 3.5 9.6 0.00 0.00 0.00 32 1011.1
20260501195612 64 146 4.3 5.2 0.00 0.00 0.00 33 1011.3
20260501195107 64 123 1.7 3.5 0.00 0.00 0.00 36 1011.3
20260501194602 63 147 3.5 7.0 0.00 0.00 0.00 36 1011.4
20260501194058 62 239 5.2 7.0 0.00 0.00 0.00 36 1011.8
20260501193556 65 181 1.7 6.1 0.00 0.00 0.00 33 1011.5
20260501193055 64 195 0.0 1.7 0.00 0.00 0.00 42 1011.5
20260501192551 64 190 2.6 12.2 0.00 0.00 0.00 38 1011.8
20260501192049 63 102 6.1 7.8 0.00 0.00 0.00 32 1012.1
20260501191545 62 208 1.7 8.7 0.00 0.00 0.00 37 1012.0
20260501191043 63 262 0.9 6.1 0.00 0.00 0.00 35 1012.1
20260501190538 63 136 4.3 9.6 0.00 0.00 0.00 31 1012.3
20260501190034 63 110 2.6 7.8 0.00 0.00 0.00 31 1012.4
20260501185530 62 261 2.6 7.0 0.00 0.00 0.00 42 1012.3
20260501185026 61 205 3.5 6.1 0.00 0.00 0.00 32 1012.4
20260501184523 62 179 8.7 11.3 0.00 0.00 0.00 35 1012.4
20260501184023 62 211 4.3 8.7 0.00 0.00 0.00 35 1012.5
20260501183520 62 188 0.9 2.6 0.00 0.00 0.00 34 1012.6
20260501183016 62 87 1.7 5.2 0.00 0.00 0.00 40 1012.7
20260501182513 61 217 5.2 7.0 0.00 0.00 0.00 35 1012.7
20260501182010 62 271 3.5 6.1 0.00 0.00 0.00 37 1012.8
20260501181507 62 242 1.7 1.7 0.00 0.00 0.00 41 1012.7
20260501181004 61 3 3.5 7.0 0.00 0.00 0.00 36 1012.8
20260501180502 61 343 2.6 12.2 0.00 0.00 0.00 40 1012.9
20260501175957 61 293 5.2 7.0 0.00 0.00 0.00 32 1012.9
20260501175455 61 265 2.6 5.2 0.00 0.00 0.00 41 1012.9
20260501174951 60 136 7.0 11.3 0.00 0.00 0.00 36 1012.9
20260501174449 60 141 5.2 9.6 0.00 0.00 0.00 35 1013.1
20260501173946 59 240 3.5 7.8 0.00 0.00 0.00 36 1013.4
20260501173444 60 229 1.7 3.5 0.00 0.00 0.00 46 1013.1
20260501172939 59 299 2.6 6.1 0.00 0.00 0.00 42 1013.4
20260501172435 61 170 0.9 1.7 0.00 0.00 0.00 45 1013.4
20260501171931 59 290 3.5 8.7 0.00 0.00 0.00 40 1013.5
20260501171427 59 168 5.2 7.0 0.00 0.00 0.00 41 1013.5
20260501170924 59 189 1.7 5.2 0.00 0.00 0.00 40 1013.6
20260501170421 58 207 0.0 7.8 0.00 0.00 0.00 43 1013.6
20260501165919 58 220 1.7 6.1 0.00 0.00 0.00 47 1013.8
20260501165416 58 191 4.3 7.8 0.00 0.00 0.00 47 1013.8
20260501164914 57 52 0.0 3.5 0.00 0.00 0.00 51 1014.1
20260501164411 57 139 0.9 5.2 0.00 0.00 0.00 46 1014.0
20260501163908 57 289 2.6 3.5 0.00 0.00 0.00 47 1013.9
20260501163404 59 231 0.9 1.7 0.00 0.00 0.00 50 1013.9
20260501162901 57 200 1.7 7.0 0.00 0.00 0.00 49 1014.1
20260501162357 56 249 0.9 1.7 0.00 0.00 0.00 46 1013.9
20260501161854 56 300 1.7 5.2 0.00 0.00 0.00 49 1014.1
20260501161351 56 318 3.5 6.1 0.00 0.00 0.00 53 1014.2
20260501160848 56 143 1.7 2.6 0.00 0.00 0.00 46 1014.3
20260501160344 56 257 3.5 5.2 0.00 0.00 0.00 45 1014.3
20260501155842 57 236 2.6 6.1 0.00 0.00 0.00 48 1014.4
20260501155338 55 223 0.0 5.2 0.00 0.00 0.00 49 1014.6
20260501154835 55 176 2.6 2.6 0.00 0.00 0.00 51 1014.5